Regional Weather Roundup
Issued by NWS Cleveland, OH

Home | Current Version | Previous Version | Graphics & Text | Print | Product List | Glossary On
Versions: 1 2 3 4 5 6 7 8 9 10 11 12 13 14 15 16 17 18 19 20 21 22 23 24 25 26 27 28 29 30 31 32 33 34 35 36 37 38 39 40 41 42 43 44 45 46 47 48 49 50
000
ASUS41 KCLE 201802
RWRCLE
OHIO REGIONAL WEATHER ROUNDUP
NATIONAL WEATHER SERVICE CLEVELAND, OH
100 PM EST SAT DEC 20 2014

NOTE: "FAIR" INDICATES FEW OR NO CLOUDS BELOW 12,000 FEET WITH NO
SIGNIFICANT WEATHER AND/OR OBSTRUCTIONS TO VISIBILITY.

OHZ001>008-015>018-024>027-034-035-043-044-201900-
   NORTHWEST OHIO

CITY           SKY/WX    TMP DP  RH WIND       PRES   REMARKS
DEFIANCE       CLOUDY    33  21  61 VRB3      30.27F
FINDLAY        CLOUDY    32  23  69 VRB5      30.25F WCI  27
TOLEDO EXPRESS CLOUDY    30  21  69 CALM      30.27F
TOLEDO EXEC    CLOUDY    31  21  66 SE5       30.28F WCI  26
LIMA           CLOUDY    32  23  69 SW6       30.25F WCI  26
$$

OHZ009>014-019>023-028>033-038-089-201900-
   NORTHEAST OHIO

CITY           SKY/WX    TMP DP  RH WIND       PRES   REMARKS
CLE-HOPKINS    CLOUDY    30  20  66 SW3       30.29F
CLE-LAKEFRONT  CLOUDY    32  21  64 W6        30.27F WCI  26
CUY CO. ARPT   CLOUDY    32  25  74 NW6       30.27F WCI  26
LORAIN-ELYRIA  CLOUDY    30  21  69 CALM      30.27F
ASHTABULA      CLOUDY    30  22  72 W5        30.26F WCI  25
AKRON-CANTON   CLOUDY    29  18  63 CALM      30.24F
WOOSTER        CLOUDY    29  19  66 CALM      30.25F
MANSFIELD      CLOUDY    27  23  85 CALM      30.24F FOG
YOUNGSTOWN     CLOUDY    29  20  69 W3        30.23F
$$

OHZ042-051>053-060>062-070>072-077>081-201900-
  SOUTHWEST OHIO

CITY           SKY/WX    TMP DP  RH WIND       PRES   REMARKS
CINC-COVINGTON CLOUDY    32  23  69 CALM      30.26F
CINC-LUNKEN    CLOUDY    33  24  69 CALM      30.29F
HAMILTON       CLOUDY    33  25  72 CALM      30.29F
DAYTON         CLOUDY    31  22  69 CALM      30.27F
WRIGHT-PAT AFB CLOUDY    31  23  72 VRB2      30.26F
DAYTON GENERAL CLOUDY    31  23  72 CALM      30.25F
WILMINGTON     CLOUDY    29  22  75 CALM      30.25F
$$

OHZ036-037-039>041-045>050-054>059-063>069-073>076-082>088-201900-
  CENTRAL AND SOUTHEAST OHIO

CITY           SKY/WX    TMP DP  RH WIND       PRES   REMARKS
COLUMBUS       CLOUDY    31  22  69 CALM      30.26F
OSU AIRPORT    CLOUDY    30  23  75 CALM      30.25F
BOLTON FIELD   CLOUDY    30  25  80 CALM      30.26F
RICKENBACK AFB CLOUDY    31  23  73 CALM      30.26F
NEWARK         CLOUDY    31  23  72 CALM      30.25F
MARION         CLOUDY    29  22  75 CALM      30.26F HAZE
LANCASTER      CLOUDY    35  25  66 N3        30.26F
ZANESVILLE     CLOUDY    30  21  69 CALM      30.25F
NEW PHILLY     CLOUDY    32  20  61 CALM      30.27F
$$


USA.gov is the U.S. government's official web portal to all federal, state and local government web resources and services.